EW1633 Weather Reports


time (UTC)temp
F
wind
direction
speed
knots
gust
knots
rain 1hr
in
rain 24hr
in
rain mn
in
humidity
%
barometer
mb
20260505221515 0 219 4.3 8.7 0.00 0.00 0.00 1011.8
20260505220014 0 230 3.5 8.7 0.00 0.00 0.00 1011.9
20260505214514 0 233 4.3 10.4 0.00 0.00 0.00 1011.9
20260505213012 0 243 4.3 10.4 0.00 0.00 0.00 1012.0
20260505211512 0 262 4.3 10.4 0.00 0.00 0.00 1012.0
20260505210011 0 179 3.5 9.6 0.00 0.00 0.00 1012.1
20260505204510 0 230 5.2 10.4 0.00 0.00 0.00 1012.2
20260505203010 0 238 3.5 8.7 0.00 0.00 0.00 1012.2
20260505201601 0 249 3.5 9.6 0.00 0.00 0.00 1012.2
20260505194619 0 221 3.5 7.8 0.00 0.00 0.00 1012.4
20260505193057 0 245 2.6 7.8 0.00 0.00 0.00 1012.5
20260505191551 0 248 2.6 9.6 0.00 0.00 0.00 1012.5
20260505190046 0 233 4.3 8.7 0.00 0.00 0.00 1012.5
20260505184542 0 233 4.3 9.6 0.00 0.00 0.00 1012.5
20260505183041 0 239 3.5 8.7 0.00 0.00 0.00 1012.5
20260505181523 0 238 4.3 7.8 0.00 0.00 0.00 1012.5
20260505180019 0 231 2.6 7.0 0.00 0.00 0.00 1012.5
20260505174515 0 261 4.3 10.4 0.00 0.00 0.00 1012.5
20260505173009 0 231 4.3 9.6 0.00 0.00 0.00 1012.5
20260505171512 0 240 5.2 9.6 0.00 0.00 0.00 1012.4
20260505170002 0 207 4.3 8.7 0.00 0.00 0.00 1012.2
20260505164617 0 247 3.5 9.6 0.00 0.00 0.00 1012.1
20260505163101 0 233 3.5 12.2 0.00 0.00 0.00 1012.1
20260505161530 0 204 6.1 13.0 0.00 0.00 0.00 1012.1
20260505153103 0 0.0 0.0 0.00 0.00 0.00 1011.7
20260505151539 0 0.0 0.0 0.00 0.00 0.00 1011.6
20260505130106 0 0.0 0.0 0.00 0.00 0.00 1010.5
20260505124524 0 0.0 0.0 0.00 0.00 0.00 1010.4
20260505123021 0 0.0 0.0 0.00 0.00 0.00 1010.3
20260505121559 0 0.0 0.0 0.00 0.00 0.00 1010.3
20260505120109 0 0.0 0.0 0.00 0.00 0.00 1010.2
20260505114532 0 0.0 0.0 0.00 0.00 0.00 1010.1
20260505113028 0 0.0 0.0 0.00 0.00 0.00 1010.1
20260505111515 0 0.0 0.0 0.00 0.00 0.00 1010.0
20260505101601 0 0.0 0.0 0.00 0.00 0.00 1009.6
20260505100051 0 0.0 0.0 0.00 0.00 0.00 1009.5
20260505094545 0 253 3.5 10.4 0.00 0.00 0.00 1009.4
20260505093042 0 219 3.5 7.8 0.00 0.00 0.00 1009.4
20260505091537 0 256 3.5 10.4 0.00 0.00 0.00 1009.3
20260505090021 0 255 3.5 9.6 0.00 0.00 0.00 1009.3
20260505084520 0 238 4.3 9.6 0.00 0.00 0.00 1009.2
20260505083014 0 256 3.5 7.8 0.00 0.00 0.00 1009.1
20260505081508 0 229 3.5 7.8 0.00 0.00 0.00 1009.1
20260505080002 0 237 2.6 7.0 0.00 0.00 0.00 1009.2
20260505074558 0 226 3.5 7.8 0.00 0.00 0.00 1009.2
20260505073055 0 232 3.5 11.3 0.00 0.00 0.00 1009.1
20260505071556 0 247 4.3 8.7 0.00 0.00 0.00 1009.0
20260505070029 0 249 3.5 8.7 0.00 0.00 0.00 1009.0
20260505064527 0 224 3.5 7.8 0.00 0.00 0.00 1008.9
20260505063012 0 245 2.6 8.7 0.00 0.00 0.00 1008.9
20260505061503 0 231 3.5 7.0 0.00 0.00 0.00 1008.8
20260505060057 0 244 4.3 10.4 0.00 0.00 0.00 1008.7
20260505054556 0 240 4.3 11.3 0.00 0.00 0.00 1008.8
20260505053056 0 252 5.2 11.3 0.00 0.00 0.00 1008.8
20260505051544 0 221 7.8 13.0 0.00 0.00 0.00 1008.7
20260505041515 0 256 8.7 13.9 0.00 0.00 0.00 1008.2
20260505040007 0 259 8.7 14.8 0.00 0.00 0.00 1008.0
20260505034503 0 250 7.0 13.9 0.00 0.00 0.00 1007.9
20260505033100 0 207 7.0 14.8 0.00 0.00 0.00 1007.7
20260505031555 0 261 5.2 13.9 0.00 0.00 0.00 1007.7
20260505030049 0 237 7.0 13.0 0.00 0.00 0.00 1007.4
20260505024546 0 245 6.1 13.9 0.00 0.00 0.00 1007.2
20260505023028 0 255 7.0 13.9 0.00 0.00 0.00 1007.1
20260505021526 0 247 7.8 14.8 0.00 0.00 0.00 1007.0
20260505020019 0 250 9.6 17.4 0.00 0.00 0.00 1007.1
20260505014514 0 248 7.0 13.9 0.00 0.00 0.00 1007.1
20260505013011 0 232 7.0 14.8 0.00 0.00 0.00 1007.2
20260505011509 0 268 8.7 15.6 0.00 0.00 0.00 1007.1
20260505010106 0 219 7.8 14.8 0.00 0.00 0.00 1007.2
20260505004557 0 226 8.7 13.9 0.00 0.00 0.00 1007.2
20260505003039 0 255 7.8 13.9 0.00 0.00 0.00 1007.2
20260505001536 0 256 5.2 13.0 0.00 0.00 0.00 1007.4
20260505000033 0 224 4.3 10.4 0.00 0.00 0.00 1007.4
20260504234526 0 231 5.2 12.2 0.00 0.00 0.00 1007.5
20260504233021 0 230 3.5 9.6 0.00 0.00 0.00 1007.4
20260504231516 0 248 5.2 11.3 0.00 0.00 0.00 1007.5
20260504230012 0 217 4.3 8.7 0.00 0.00 0.00 1007.6
20260504224509 0 243 4.3 9.6 0.00 0.00 0.00 1007.8
20260504223051 0 233 4.3 10.4 0.00 0.00 0.00 1008.0